Content
SEND FEEDBACK

Daily
Averages
Monthly
Summary
Liberia

KINGSVILLE, LIBERIA


Home > Africa > Liberia
Elevation: 98 feet     Latitude: 06 24N     Longitude: 010 24W

WEATHER
 
SELECT A DAY
Number of Records: 90,780;   Date Range: 2/8/97 - 8/26/14
 
SHARE

PRINT THIS DATA

[ ← Previous Day ]
WEATHER ALMANAC - JANUARY 31, 2013
[ Next Day → ]
[ °C ]   °F
Weather ElementAverageHighLow
Temperature81.7 °F89.6 °F (1:00 pm)75.2 °F (7:30 am)
Dewpoint77.4 °F80.6 °F (10:30 am)75.2 °F (12:30 am)
Humidity87.4 %100 % (7:30 am)70 % (1:00 pm)
Barometer29.87 in29.92 in (9:00 am)29.80 in (4:00 pm)
Wind Speed5.5 mph13.8 mph (2:30 pm)
Weather ElementAverage
Visibility5.6 mi
Wind DirectionESE (120.9 °)

Weather ElementTotal
Precipitation---
Cooling Degree Days17.4 (Base 65)
Growing Degree Days32.4 (Base 50)
Averaged from 44 records on January 31, 2013
WEATHER CONDITIONS BREAKOUT
WIND DIRECTION BREAKOUT
WEATHER BY HOUR - JANUARY 31, 2013
[ °C ]   °F
Local TimeTemperatureDewpointHumidityBarometerVisibilityWind DirectionWind SpeedGust SpeedPrecipitationEventsConditions
12:30 AM77.0 °F75.2 °F94 %29.89 in5.6 miCalmScattered Clouds
2:00 AM77.0 °F75.2 °F94 %29.86 in5.6 miCalmMostly Cloudy
2:30 AM77.0 °F75.2 °F94 %29.86 in5.0 miCalmScattered Clouds
3:00 AM77.0 °F75.2 °F94 %29.86 in5.0 miCalmPartly Cloudy
3:30 AM77.0 °F75.2 °F94 %29.86 in5.0 miNNE (20°)3.5 mphPartly Cloudy
4:00 AM77.0 °F75.2 °F94 %29.86 in5.0 miCalmScattered Clouds
4:30 AM77.0 °F75.2 °F94 %29.86 in5.0 miENE (70°)3.5 mphScattered Clouds
5:00 AM77.0 °F75.2 °F94 %29.86 in5.0 miENE (60°)5.8 mphScattered Clouds
6:00 AM77.0 °F75.2 °F94 %29.86 in5.0 miENE (60°)5.8 mphPartly Cloudy
6:30 AM77.0 °F75.2 °F94 %29.86 in5.0 miNE (40°)6.9 mphMostly Cloudy
7:00 AM77.0 °F75.2 °F94 %29.89 in4.3 miNE (40°)8.1 mphScattered Clouds
7:30 AM75.2 °F75.2 °F100 %29.89 in3.7 miNE (40°)8.1 mphScattered Clouds
8:00 AM75.2 °F75.2 °F100 %29.89 in3.7 miNE (40°)6.9 mphMostly Cloudy
8:30 AM77.0 °F75.2 °F94 %29.89 in3.7 miNE (40°)6.9 mphMostly Cloudy
9:00 AM78.8 °F77.0 °F94 %29.92 in4.3 miNNE (20°)5.8 mphScattered Clouds
9:30 AM80.6 °F78.8 °F94 %29.92 in5.6 miNNE (30°)10.4 mphScattered Clouds
10:00 AM80.6 °F78.8 °F94 %29.92 in5.6 miNE (40°)9.2 mphMostly Cloudy
10:30 AM82.4 °F80.6 °F94 %29.92 in6.2 miNNE (20°)9.2 mphScattered Clouds
11:00 AM84.2 °F78.8 °F84 %29.92 in6.2 miNNW (330°)8.1 mphMostly Cloudy
11:30 AM86.0 °F78.8 °F79 %29.92 in6.2 miNorth (350°)4.6 mphMostly Cloudy
12:00 PM87.8 °F78.8 °F75 %29.89 in6.2 miWest (260°)6.9 mphMostly Cloudy
12:30 PM87.8 °F78.8 °F75 %29.89 in6.2 miWest (280°)3.5 mphMostly Cloudy
1:00 PM89.6 °F78.8 °F70 %29.86 in6.2 miWSW (250°)4.6 mphMostly Cloudy
1:30 PM89.6 °F80.6 °F75 %29.86 in6.2 miWSW (240°)6.9 mphMostly Cloudy
2:00 PM87.8 °F78.8 °F75 %29.86 in6.2 miSW (220°)12.7 mphMostly Cloudy
2:30 PM89.6 °F80.6 °F75 %29.83 in6.2 miSW (230°)13.8 mphPartly Cloudy
3:00 PM89.6 °F80.6 °F75 %29.83 in6.2 miWSW (240°)10.4 mphPartly Cloudy
3:30 PM89.6 °F80.6 °F75 %29.83 in6.2 miSSW (210°)8.1 mphScattered Clouds
4:00 PM89.6 °F80.6 °F75 %29.80 in6.2 miSW (230°)10.4 mphPartly Cloudy
4:30 PM87.8 °F78.8 °F75 %29.80 in6.2 miWSW (250°)9.2 mphPartly Cloudy
5:00 PM87.8 °F78.8 °F75 %29.80 in6.2 miSW (230°)11.5 mphPartly Cloudy
5:30 PM86.0 °F78.8 °F79 %29.83 in6.2 miWest (260°)10.4 mphPartly Cloudy
6:00 PM86.0 °F78.8 °F79 %29.83 in6.2 miWest (260°)8.1 mph
6:30 PM84.2 °F78.8 °F84 %29.83 inSW (230°)6.9 mphClear
7:00 PM82.4 °F78.8 °F89 %29.83 inWSW (250°)6.9 mphClear
7:30 PM80.6 °F77.0 °F89 %29.83 inWSW (240°)4.6 mphClear
8:00 PM80.6 °F77.0 °F89 %29.86 in6.2 miWSW (240°)3.5 mphClear
8:30 PM80.6 °F77.0 °F89 %29.86 in6.2 miCalmClear
9:00 PM80.6 °F77.0 °F89 %29.86 in6.2 miCalmClear
9:30 PM78.8 °F77.0 °F94 %29.89 in6.2 miCalmClear
10:00 PM78.8 °F77.0 °F94 %29.89 in6.2 miCalmPartly Cloudy
10:30 PM78.8 °F77.0 °F94 %29.89 in6.2 miCalmPartly Cloudy
11:00 PM77.0 °F75.2 °F94 %29.89 in6.2 miCalmPartly Cloudy
11:30 PM77.0 °F75.2 °F94 %29.89 in6.2 miCalmPartly Cloudy
Hourly data recorded from GLRB, located miles away from Kingsville, Liberia







STORIES FROM OUR PARTNERS